Regional Weather Roundup
Issued by NWS

Home | Current Version | Previous Version | Graphics & Text | Print | Product List | Glossary Off
Versions: 1 2 3 4 5 6 7 8 9 10 11 12 13 14 15 16 17 18 19 20 21 22 23 24 25 26 27 28 29 30 31 32 33 34 35 36 37 38 39 40 41 42 43 44 45 46 47 48 49 50

000
ASUS43 KLSX 300707
RWRMO

WEATHER SUMMARY FOR MISSOURI
NATIONAL WEATHER SERVICE SPRINGFIELD MO
200 AM CDT TUE SEP 30 2014

NOTE: "FAIR" INDICATES FEW OR NO CLOUDS BELOW 12,000 FEET WITH NO
       SIGNIFICANT WEATHER AND/OR OBSTRUCTIONS TO VISIBILITY.
       CURRENT SKY AND/OR WEATHER CONDITIONS ARE NOT AVAILABLE FOR
       CHILLICOTHE AND FARMINGTON.

MOZ001>031-035>038-043-044-053-054-300800-
...NORTHERN AND WESTERN MISSOURI...

CITY           SKY/WX    TMP DP  RH WIND       PRES   REMARKS
KANSAS CTY INT PTCLDY    64  58  80 S6        29.97S
KANSAS C DTWN  PTCLDY    67  60  78 CALM      29.96S
LEE`S SUMMIT   CLEAR     68  58  70 SE3       29.98R
ST JOSEPH      PTCLDY    59  56  89 CALM      29.96F
CHILLICOTHE      N/A     59  57  93 CALM      29.98S
KIRKSVILLE     CLEAR     56  55  97 CALM      29.98S FOG

$$
MOZ066>068-077>081-088>096-101>105-300800-
...SOUTHWEST MISSOURI...

CITY           SKY/WX    TMP DP  RH WIND       PRES   REMARKS
SPRINGFIELD    CLEAR     62  57  83 S5        29.98S
JOPLIN         PTCLDY    65  58  78 CALM      29.97R

$$
MOZ032>034-039>042-045>050-055>058-069>072-300800-
...CENTRAL MISSOURI...

CITY           SKY/WX    TMP DP  RH WIND       PRES   REMARKS
COLUMBIA       CLEAR     67  56  67 S5        29.98R
JEFFERSON CITY CLEAR     58  56  93 CALM      29.97R
ROLLA          CLEAR     65  52  62 SE8       29.97S
SEDALIA        CLEAR     63  58  83 S5        29.98R
WHITEMAN AFB   CLEAR     60  58  93 CALM      29.97R
OSAGE BEACH    CLEAR     57  55  94 CALM      29.97S

$$
MOZ051-052-059>065-300800-
...EAST CENTRAL MISSOURI...

CITY           SKY/WX    TMP DP  RH WIND       PRES   REMARKS
ST LOUIS INTL  CLEAR     66  58  75 CALM      29.97R
SPIRIT OF STL  CLEAR     57  55  93 CALM      29.96R FOG
ST CHARLES     MOCLDY    57  56  96 CALM      29.96R FOG

$$
MOZ072>076-082>087-097>100-106>115-300800-
...SOUTH CENTRAL AND SOUTHEAST MISSOURI...

CITY           SKY/WX    TMP DP  RH WIND       PRES   REMARKS
CAPE GIRARDEAU FOG       54  53  97 CALM      29.95R VSB 1/4
FARMINGTON     CLEAR     55  54  94 CALM      30.00R
POPLAR BLUFF   CLEAR     59  55  87 CALM      29.95R
WEST PLAINS    CLEAR     59  56  89 CALM      30.00R

$$



USA.gov is the U.S. government's official web portal to all federal, state and local government web resources and services.